Вернуться в каталог

USA 89 R/B

АктивенHEO
NORAD 22519·ROCKET BODY·🇺🇸 United States

Запущен Dec 2, 1992 с Cape Canaveral Space Force Station

Loading…

Ближайшие Пролёты (ближайшие 24 часа)

TLE

УстаревшееSource: Mike McCants

Эпоха: Jun 26, 2026, 21:40 UTC

1 22519U 92086C   26177.90347053 0.00001785  00000-0  23743-3 0    04
2 22519  56.9204  90.8468 3006852 252.8513 107.0719  9.20203909    01

Отслеживайте USA 89 R/B в реальном времени с AllMySat

Download on the App Store